Погода в Белгатое

Россия / Чеченская Республика     43°11′25″N   45°49′54″E
темп.,
°C
ветер,
м/с
пор.,
м/с
влажн.,
%
обл.,
%
осадки,
мм/ч
давл.,
гПа
погр.,
м
8 августа, пн
пн800:00+22ююв116794 0.1 1010172
03:00+20юз237986 0.3 1011161
06:00+20зюз247999 0.2 1012206
09:00+23з346299 0.3 1013570
12:00+26юз234860 0.1 10141270
15:00+28св434170 0.1 10131864
18:00+27всв224515 0.1 1014877
21:00+22ююв12610 0.1 101554
9 августа, вт
вт900:00+21ююз12700 0.0 101471
03:00+19ююз12720 0.0 101571
06:00+20ююз11680 0.0 101597
09:00+27св23440 0.0 1015930
12:00+31всв34290 0.0 10132197
15:00+33всв642443 0.0 10123026
18:00+30в66280 0.0 10131591
21:00+24вюв36420 0.0 1013304
10 августа, ср
ср1000:00+21ююв11540 0.0 101266
03:00+20юв11610 0.0 101278
06:00+21ююз11590 0.0 1012119
09:00+27в35392 0.0 1011905
12:00+35всв45230 0.0 10082125
15:00+35всв86211 0.0 10062068
18:00+31всв79290 0.0 1007806
21:00+25всв25490 0.1 1008288
11 августа, чт
чт1100:00+23юз22571 0.0 1008114
03:00+22ююз11620 0.0 100793
06:00+22зюз22590 0.0 1008156
09:00+29ссз10382 0.0 1007618
12:00+35ссв22274 0.0 10061400
15:00+38сз22223 0.0 10052008
18:00+33с15413 0.4 1006515
21:00+27ююв11611 1.1 100880
12 августа, пт
пт1200:00+26ююв11620 0.1 100861
03:00+24юз11610 0.1 100960
06:00+24юз12630 0.0 1010131
09:00+30зсз22470 0.0 1011822
12:00+36всв23330 0.0 10091645
15:00+38св65170 0.0 10072493
18:00+33св69290 0.2 1008648
21:00+27юв13500 0.3 1010198